owner,sensor,date,latitude,longitude,vertical_datum,mass_concentration_of_oxygen_in_sea_water,qcFlag 
DISL,ioos:station:DISL:CATA:1,2009-08-01T00:00:00Z,30.3085,-88.1395,2.23,6.31,1111122 
DISL,ioos:station:DISL:CATA:1,2009-08-01T00:30:00Z,30.3085,-88.1395,2.221,6.67,1111122 
DISL,ioos:station:DISL:CATA:1,2009-08-01T01:00:00Z,30.3085,-88.1395,2.198,6.43,1111122 
DISL,ioos:station:DISL:CATA:1,2009-08-01T01:30:00Z,30.3085,-88.1395,2.217,6.27,1111122 
DISL,ioos:station:DISL:CATA:1,2009-08-01T02:00:00Z,30.3085,-88.1395,2.264,5.92,1111122 
DISL,ioos:station:DISL:CATA:1,2009-08-01T02:30:00Z,30.3085,-88.1395,2.301,5.57,1111122 
DISL,ioos:station:DISL:CATA:1,2009-08-01T03:00:00Z,30.3085,-88.1395,2.337,5.3,1111122 
DISL,ioos:station:DISL:CATA:1,2009-08-01T03:30:00Z,30.3085,-88.1395,2.382,5.21,1111122 
DISL,ioos:station:DISL:CATA:1,2009-08-01T04:00:00Z,30.3085,-88.1395,2.391,5.65,1111122 
DISL,ioos:station:DISL:CATA:1,2009-08-01T04:30:00Z,30.3085,-88.1395,2.386,5.73,1111122 
DISL,ioos:station:DISL:CATA:1,2009-08-01T05:00:00Z,30.3085,-88.1395,2.421,5.75,1111122 
DISL,ioos:station:DISL:CATA:1,2009-08-01T05:30:00Z,30.3085,-88.1395,2.457,5.67,1111122 
DISL,ioos:station:DISL:CATA:1,2009-08-01T06:00:00Z,30.3085,-88.1395,2.481,5.31,1111122 
DISL,ioos:station:DISL:CATA:1,2009-08-01T06:30:00Z,30.3085,-88.1395,2.492,5.43,1111122 
DISL,ioos:station:DISL:CATA:1,2009-08-01T07:00:00Z,30.3085,-88.1395,2.537,5.57,1111122 
DISL,ioos:station:DISL:CATA:1,2009-08-01T07:30:00Z,30.3085,-88.1395,2.562,5.52,1111122 
DISL,ioos:station:DISL:CATA:1,2009-08-01T08:00:00Z,30.3085,-88.1395,2.587,5.38,1111122 
DISL,ioos:station:DISL:CATA:1,2009-08-01T08:30:00Z,30.3085,-88.1395,2.625,5.53,1111122 
DISL,ioos:station:DISL:CATA:1,2009-08-01T09:00:00Z,30.3085,-88.1395,2.667,5.59,1111122 
DISL,ioos:station:DISL:CATA:1,2009-08-01T09:30:00Z,30.3085,-88.1395,2.7,5.63,1111122 
DISL,ioos:station:DISL:CATA:1,2009-08-01T10:00:00Z,30.3085,-88.1395,2.731,5.55,1111122 
DISL,ioos:station:DISL:CATA:1,2009-08-01T10:30:00Z,30.3085,-88.1395,2.755,5.48,1111122 
DISL,ioos:station:DISL:CATA:1,2009-08-01T11:00:00Z,30.3085,-88.1395,2.769,5.44,1111122 
DISL,ioos:station:DISL:CATA:1,2009-08-01T11:30:00Z,30.3085,-88.1395,2.778,5.39,1111122 
DISL,ioos:station:DISL:CATA:1,2009-08-01T12:00:00Z,30.3085,-88.1395,2.795,5.27,1111122 
DISL,ioos:station:DISL:CATA:1,2009-08-01T12:30:00Z,30.3085,-88.1395,2.799,5.29,1111122 
DISL,ioos:station:DISL:CATA:1,2009-08-01T13:00:00Z,30.3085,-88.1395,2.819,5.24,1111122 
DISL,ioos:station:DISL:CATA:1,2009-08-01T13:30:00Z,30.3085,-88.1395,2.808,5.23,1111122 
DISL,ioos:station:DISL:CATA:1,2009-08-01T14:00:00Z,30.3085,-88.1395,2.802,5.42,1111122 
DISL,ioos:station:DISL:CATA:1,2009-08-01T14:30:00Z,30.3085,-88.1395,2.768,5.35,1111122 
DISL,ioos:station:DISL:CATA:1,2009-08-01T15:00:00Z,30.3085,-88.1395,2.791,4.79,1111122 
DISL,ioos:station:DISL:CATA:1,2009-08-01T15:30:00Z,30.3085,-88.1395,2.735,4.63,1111122 
DISL,ioos:station:DISL:CATA:1,2009-08-01T16:00:00Z,30.3085,-88.1395,2.739,4.9,1111122 
DISL,ioos:station:DISL:CATA:1,2009-08-01T16:30:00Z,30.3085,-88.1395,2.704,4.84,1111122 
DISL,ioos:station:DISL:CATA:1,2009-08-01T17:00:00Z,30.3085,-88.1395,2.657,5.05,1111122 
DISL,ioos:station:DISL:CATA:1,2009-08-01T17:30:00Z,30.3085,-88.1395,2.63,5.28,1111122 
DISL,ioos:station:DISL:CATA:1,2009-08-01T18:00:00Z,30.3085,-88.1395,2.59,5.63,1111122 
DISL,ioos:station:DISL:CATA:1,2009-08-01T18:30:00Z,30.3085,-88.1395,2.545,6.14,1111122 
DISL,ioos:station:DISL:CATA:1,2009-08-01T19:00:00Z,30.3085,-88.1395,2.514,6.39,1111122 
DISL,ioos:station:DISL:CATA:1,2009-08-01T19:30:00Z,30.3085,-88.1395,2.489,6.17,1111122 
DISL,ioos:station:DISL:CATA:1,2009-08-01T20:00:00Z,30.3085,-88.1395,2.45,6.33,1111122 
DISL,ioos:station:DISL:CATA:1,2009-08-01T20:30:00Z,30.3085,-88.1395,2.404,6.45,1111122 
DISL,ioos:station:DISL:CATA:1,2009-08-01T21:00:00Z,30.3085,-88.1395,2.368,6.57,1111122 
DISL,ioos:station:DISL:CATA:1,2009-08-01T21:30:00Z,30.3085,-88.1395,2.344,6.39,1111122 
DISL,ioos:station:DISL:CATA:1,2009-08-01T22:00:00Z,30.3085,-88.1395,2.324,6.27,1111122 
DISL,ioos:station:DISL:CATA:1,2009-08-01T22:30:00Z,30.3085,-88.1395,2.301,6.43,1111122 
DISL,ioos:station:DISL:CATA:1,2009-08-01T23:00:00Z,30.3085,-88.1395,2.296,6.34,1111122 
DISL,ioos:station:DISL:CATA:1,2009-08-01T23:30:00Z,30.3085,-88.1395,2.285,5.87,1111122 
DISL,ioos:station:DISL:CATA:1,2009-08-02T00:00:00Z,30.3085,-88.1395,2.264,5.73,1111122 
DISL,ioos:station:DISL:CATA:1,2009-08-02T00:30:00Z,30.3085,-88.1395,2.242,5.5,1111122 
DISL,ioos:station:DISL:CATA:1,2009-08-02T01:00:00Z,30.3085,-88.1395,2.23,4.96,1111122 
DISL,ioos:station:DISL:CATA:1,2009-08-02T01:30:00Z,30.3085,-88.1395,2.231,4.96,1111122 
DISL,ioos:station:DISL:CATA:1,2009-08-02T02:00:00Z,30.3085,-88.1395,2.263,5.22,1111122 
DISL,ioos:station:DISL:CATA:1,2009-08-02T02:30:00Z,30.3085,-88.1395,2.273,5.35,1111122 
DISL,ioos:station:DISL:CATA:1,2009-08-02T03:00:00Z,30.3085,-88.1395,2.318,5.11,1111122 
DISL,ioos:station:DISL:CATA:1,2009-08-02T03:30:00Z,30.3085,-88.1395,2.344,4.29,1111122 
DISL,ioos:station:DISL:CATA:1,2009-08-02T04:00:00Z,30.3085,-88.1395,2.356,5.56,1111122 
DISL,ioos:station:DISL:CATA:1,2009-08-02T04:30:00Z,30.3085,-88.1395,2.387,5.53,1111122 
DISL,ioos:station:DISL:CATA:1,2009-08-02T05:00:00Z,30.3085,-88.1395,2.404,5.2,1111122 
DISL,ioos:station:DISL:CATA:1,2009-08-02T05:30:00Z,30.3085,-88.1395,2.416,5.37,1111122 
DISL,ioos:station:DISL:CATA:1,2009-08-02T06:00:00Z,30.3085,-88.1395,2.438,5.8,1111122 
DISL,ioos:station:DISL:CATA:1,2009-08-02T06:30:00Z,30.3085,-88.1395,2.452,5.82,1111122 
DISL,ioos:station:DISL:CATA:1,2009-08-02T07:00:00Z,30.3085,-88.1395,2.466,5.82,1111122 
DISL,ioos:station:DISL:CATA:1,2009-08-02T07:30:00Z,30.3085,-88.1395,2.498,5.95,1111122 
DISL,ioos:station:DISL:CATA:1,2009-08-02T08:00:00Z,30.3085,-88.1395,2.538,6.03,1111122 
DISL,ioos:station:DISL:CATA:1,2009-08-02T08:30:00Z,30.3085,-88.1395,2.57,6.06,1111122 
DISL,ioos:station:DISL:CATA:1,2009-08-02T09:00:00Z,30.3085,-88.1395,2.61,6.02,1111122 
DISL,ioos:station:DISL:CATA:1,2009-08-02T09:30:00Z,30.3085,-88.1395,2.64,6.01,1111122 
DISL,ioos:station:DISL:CATA:1,2009-08-02T10:00:00Z,30.3085,-88.1395,2.677,5.98,1111122 
DISL,ioos:station:DISL:CATA:1,2009-08-02T10:30:00Z,30.3085,-88.1395,2.7,5.93,1111122 
DISL,ioos:station:DISL:CATA:1,2009-08-02T11:00:00Z,30.3085,-88.1395,2.73,5.9,1111122 
DISL,ioos:station:DISL:CATA:1,2009-08-02T11:30:00Z,30.3085,-88.1395,2.746,5.79,1111122 
DISL,ioos:station:DISL:CATA:1,2009-08-02T12:00:00Z,30.3085,-88.1395,2.748,5.71,1111122 
DISL,ioos:station:DISL:CATA:1,2009-08-02T12:30:00Z,30.3085,-88.1395,2.759,5.81,1111122 
DISL,ioos:station:DISL:CATA:1,2009-08-02T13:00:00Z,30.3085,-88.1395,2.757,5.65,1111122 
DISL,ioos:station:DISL:CATA:1,2009-08-02T13:30:00Z,30.3085,-88.1395,2.768,5.77,1111122 
DISL,ioos:station:DISL:CATA:1,2009-08-02T14:00:00Z,30.3085,-88.1395,2.767,5.65,1111122 
DISL,ioos:station:DISL:CATA:1,2009-08-02T14:30:00Z,30.3085,-88.1395,2.766,5.59,1111122 
DISL,ioos:station:DISL:CATA:1,2009-08-02T15:00:00Z,30.3085,-88.1395,2.756,5.61,1111122 
DISL,ioos:station:DISL:CATA:1,2009-08-02T15:30:00Z,30.3085,-88.1395,2.745,5.47,1111122 
DISL,ioos:station:DISL:CATA:1,2009-08-02T16:00:00Z,30.3085,-88.1395,2.733,5.48,1111122 
DISL,ioos:station:DISL:CATA:1,2009-08-02T16:30:00Z,30.3085,-88.1395,2.705,5.39,1111122 
DISL,ioos:station:DISL:CATA:1,2009-08-02T17:00:00Z,30.3085,-88.1395,2.672,5.34,1111122 
DISL,ioos:station:DISL:CATA:1,2009-08-02T17:30:00Z,30.3085,-88.1395,2.638,6.03,1111122 
DISL,ioos:station:DISL:CATA:1,2009-08-02T18:00:00Z,30.3085,-88.1395,2.602,5.57,1111122 
DISL,ioos:station:DISL:CATA:1,2009-08-02T18:30:00Z,30.3085,-88.1395,2.572,5.8,1111122 
DISL,ioos:station:DISL:CATA:1,2009-08-02T19:00:00Z,30.3085,-88.1395,2.519,5.48,1111122 
DISL,ioos:station:DISL:CATA:1,2009-08-02T19:30:00Z,30.3085,-88.1395,2.494,6.21,1111122 
DISL,ioos:station:DISL:CATA:1,2009-08-02T20:00:00Z,30.3085,-88.1395,2.46,6.12,1111122 
DISL,ioos:station:DISL:CATA:1,2009-08-02T20:30:00Z,30.3085,-88.1395,2.405,5.98,1111122 
DISL,ioos:station:DISL:CATA:1,2009-08-02T21:00:00Z,30.3085,-88.1395,2.376,4.56,1111122 
DISL,ioos:station:DISL:CATA:1,2009-08-02T21:30:00Z,30.3085,-88.1395,2.355,4.15,1111122 
DISL,ioos:station:DISL:CATA:1,2009-08-02T22:00:00Z,30.3085,-88.1395,2.319,3.51,1111122 
DISL,ioos:station:DISL:CATA:1,2009-08-02T22:30:00Z,30.3085,-88.1395,2.285,3.13,1111122 
DISL,ioos:station:DISL:CATA:1,2009-08-02T23:00:00Z,30.3085,-88.1395,2.249,3.15,1111122 
DISL,ioos:station:DISL:CATA:1,2009-08-02T23:30:00Z,30.3085,-88.1395,2.223,3.42,1111122 
DISL,ioos:station:DISL:CATA:1,2009-08-03T00:00:00Z,30.3085,-88.1395,2.214,3.11,1111122 
DISL,ioos:station:DISL:CATA:1,2009-08-03T00:30:00Z,30.3085,-88.1395,2.226,3.13,1111122 
DISL,ioos:station:DISL:CATA:1,2009-08-03T01:00:00Z,30.3085,-88.1395,2.237,2.94,1111122 
DISL,ioos:station:DISL:CATA:1,2009-08-03T01:30:00Z,30.3085,-88.1395,2.235,2.75,1111122 
DISL,ioos:station:DISL:CATA:1,2009-08-03T02:00:00Z,30.3085,-88.1395,2.253,2.27,1111122 
DISL,ioos:station:DISL:CATA:1,2009-08-03T02:30:00Z,30.3085,-88.1395,2.259,1.68,1111122 
DISL,ioos:station:DISL:CATA:1,2009-08-03T03:00:00Z,30.3085,-88.1395,2.288,1.53,1111122 
DISL,ioos:station:DISL:CATA:1,2009-08-03T03:30:00Z,30.3085,-88.1395,2.313,2.2,1111122 
DISL,ioos:station:DISL:CATA:1,2009-08-03T04:00:00Z,30.3085,-88.1395,2.348,4.74,1111122 
DISL,ioos:station:DISL:CATA:1,2009-08-03T04:30:00Z,30.3085,-88.1395,2.372,4.2,1111122 
DISL,ioos:station:DISL:CATA:1,2009-08-03T05:00:00Z,30.3085,-88.1395,2.382,3.82,1111122 
DISL,ioos:station:DISL:CATA:1,2009-08-03T05:30:00Z,30.3085,-88.1395,2.391,4.25,1111122 
DISL,ioos:station:DISL:CATA:1,2009-08-03T06:00:00Z,30.3085,-88.1395,2.409,4.67,1111122 
DISL,ioos:station:DISL:CATA:1,2009-08-03T06:30:00Z,30.3085,-88.1395,2.426,4.75,1111122 
DISL,ioos:station:DISL:CATA:1,2009-08-03T07:00:00Z,30.3085,-88.1395,2.448,4.97,1111122 
DISL,ioos:station:DISL:CATA:1,2009-08-03T07:30:00Z,30.3085,-88.1395,2.471,5.32,1111122 
DISL,ioos:station:DISL:CATA:1,2009-08-03T08:00:00Z,30.3085,-88.1395,2.501,5.47,1111122 
DISL,ioos:station:DISL:CATA:1,2009-08-03T08:30:00Z,30.3085,-88.1395,2.533,5.5,1111122 
DISL,ioos:station:DISL:CATA:1,2009-08-03T09:00:00Z,30.3085,-88.1395,2.559,5.64,1111122 
DISL,ioos:station:DISL:CATA:1,2009-08-03T09:30:00Z,30.3085,-88.1395,2.59,5.47,1111122 
DISL,ioos:station:DISL:CATA:1,2009-08-03T10:00:00Z,30.3085,-88.1395,2.632,5.41,1111122 
DISL,ioos:station:DISL:CATA:1,2009-08-03T10:30:00Z,30.3085,-88.1395,2.676,5.6,1111122 
DISL,ioos:station:DISL:CATA:1,2009-08-03T11:00:00Z,30.3085,-88.1395,2.71,5.82,1111122 
DISL,ioos:station:DISL:CATA:1,2009-08-03T11:30:00Z,30.3085,-88.1395,2.728,5.8,1111122 
DISL,ioos:station:DISL:CATA:1,2009-08-03T12:00:00Z,30.3085,-88.1395,2.75,5.66,1111122 
DISL,ioos:station:DISL:CATA:1,2009-08-03T12:30:00Z,30.3085,-88.1395,2.768,5.62,1111122 
DISL,ioos:station:DISL:CATA:1,2009-08-03T13:00:00Z,30.3085,-88.1395,2.778,5.77,1111122 
DISL,ioos:station:DISL:CATA:1,2009-08-03T13:30:00Z,30.3085,-88.1395,2.792,5.89,1111122 
DISL,ioos:station:DISL:CATA:1,2009-08-03T14:00:00Z,30.3085,-88.1395,2.792,5.8,1111122 
DISL,ioos:station:DISL:CATA:1,2009-08-03T14:30:00Z,30.3085,-88.1395,2.785,5.83,1111122 
DISL,ioos:station:DISL:CATA:1,2009-08-03T15:00:00Z,30.3085,-88.1395,2.787,5.67,1111122 
DISL,ioos:station:DISL:CATA:1,2009-08-03T15:30:00Z,30.3085,-88.1395,2.782,4.55,1111122 
DISL,ioos:station:DISL:CATA:1,2009-08-03T16:00:00Z,30.3085,-88.1395,2.754,4.21,1111122 
DISL,ioos:station:DISL:CATA:1,2009-08-03T16:30:00Z,30.3085,-88.1395,2.731,4.34,1111122 
DISL,ioos:station:DISL:CATA:1,2009-08-03T17:00:00Z,30.3085,-88.1395,2.722,5.18,1111122 
DISL,ioos:station:DISL:CATA:1,2009-08-03T17:30:00Z,30.3085,-88.1395,2.68,4.58,1111122 
DISL,ioos:station:DISL:CATA:1,2009-08-03T18:00:00Z,30.3085,-88.1395,2.641,4.95,1111122 
DISL,ioos:station:DISL:CATA:1,2009-08-03T18:30:00Z,30.3085,-88.1395,2.605,5.73,1111122 
DISL,ioos:station:DISL:CATA:1,2009-08-03T19:00:00Z,30.3085,-88.1395,2.563,6.16,1111122 
DISL,ioos:station:DISL:CATA:1,2009-08-03T19:30:00Z,30.3085,-88.1395,2.521,5.77,1111122 
DISL,ioos:station:DISL:CATA:1,2009-08-03T20:00:00Z,30.3085,-88.1395,2.506,4.64,1111122 
DISL,ioos:station:DISL:CATA:1,2009-08-03T20:30:00Z,30.3085,-88.1395,2.427,5.29,1111122 
DISL,ioos:station:DISL:CATA:1,2009-08-03T21:00:00Z,30.3085,-88.1395,2.385,5.51,1111122 
DISL,ioos:station:DISL:CATA:1,2009-08-03T21:30:00Z,30.3085,-88.1395,2.38,5.65,1111122 
DISL,ioos:station:DISL:CATA:1,2009-08-03T22:00:00Z,30.3085,-88.1395,2.364,6.13,1111122 
DISL,ioos:station:DISL:CATA:1,2009-08-03T22:30:00Z,30.3085,-88.1395,2.332,5.93,1111122 
DISL,ioos:station:DISL:CATA:1,2009-08-03T23:00:00Z,30.3085,-88.1395,2.297,6.24,1111122 
DISL,ioos:station:DISL:CATA:1,2009-08-03T23:30:00Z,30.3085,-88.1395,2.272,6.39,1111122 
DISL,ioos:station:DISL:CATA:1,2009-08-04T00:00:00Z,30.3085,-88.1395,2.279,6.7,1111122 
DISL,ioos:station:DISL:CATA:1,2009-08-04T00:30:00Z,30.3085,-88.1395,2.258,6.56,1111122 
DISL,ioos:station:DISL:CATA:1,2009-08-04T01:00:00Z,30.3085,-88.1395,2.244,6.17,1111122 
DISL,ioos:station:DISL:CATA:1,2009-08-04T01:30:00Z,30.3085,-88.1395,2.265,6.06,1111122 
DISL,ioos:station:DISL:CATA:1,2009-08-04T02:00:00Z,30.3085,-88.1395,2.243,5.74,1111122 
DISL,ioos:station:DISL:CATA:1,2009-08-04T02:30:00Z,30.3085,-88.1395,2.234,5.4,1111122 
DISL,ioos:station:DISL:CATA:1,2009-08-04T03:00:00Z,30.3085,-88.1395,2.274,5.9,1111122 
DISL,ioos:station:DISL:CATA:1,2009-08-04T03:30:00Z,30.3085,-88.1395,2.306,5.06,1111122 
DISL,ioos:station:DISL:CATA:1,2009-08-04T04:00:00Z,30.3085,-88.1395,2.347,4.04,1111122 
DISL,ioos:station:DISL:CATA:1,2009-08-04T04:30:00Z,30.3085,-88.1395,2.361,6.31,1111122 
DISL,ioos:station:DISL:CATA:1,2009-08-04T05:00:00Z,30.3085,-88.1395,2.359,6.26,1111122 
DISL,ioos:station:DISL:CATA:1,2009-08-04T05:30:00Z,30.3085,-88.1395,2.387,6.05,1111122 
DISL,ioos:station:DISL:CATA:1,2009-08-04T06:00:00Z,30.3085,-88.1395,2.413,6.09,1111122 
DISL,ioos:station:DISL:CATA:1,2009-08-04T06:30:00Z,30.3085,-88.1395,2.424,5.67,1111122 
DISL,ioos:station:DISL:CATA:1,2009-08-04T07:00:00Z,30.3085,-88.1395,2.44,5.31,1111122 
DISL,ioos:station:DISL:CATA:1,2009-08-04T07:30:00Z,30.3085,-88.1395,2.457,5.09,1111122 
DISL,ioos:station:DISL:CATA:1,2009-08-04T08:00:00Z,30.3085,-88.1395,2.476,4.78,1111122 
DISL,ioos:station:DISL:CATA:1,2009-08-04T08:30:00Z,30.3085,-88.1395,2.516,5.09,1111122 
DISL,ioos:station:DISL:CATA:1,2009-08-04T09:00:00Z,30.3085,-88.1395,2.545,5.21,1111122 
DISL,ioos:station:DISL:CATA:1,2009-08-04T09:30:00Z,30.3085,-88.1395,2.582,5.7,1111122 
DISL,ioos:station:DISL:CATA:1,2009-08-04T10:00:00Z,30.3085,-88.1395,2.614,5.56,1111122 
DISL,ioos:station:DISL:CATA:1,2009-08-04T10:30:00Z,30.3085,-88.1395,2.65,5.63,1111122 
DISL,ioos:station:DISL:CATA:1,2009-08-04T11:00:00Z,30.3085,-88.1395,2.668,5.66,1111122 
DISL,ioos:station:DISL:CATA:1,2009-08-04T11:30:00Z,30.3085,-88.1395,2.693,5.64,1111122 
DISL,ioos:station:DISL:CATA:1,2009-08-04T12:00:00Z,30.3085,-88.1395,2.721,5.47,1111122 
DISL,ioos:station:DISL:CATA:1,2009-08-04T12:30:00Z,30.3085,-88.1395,2.751,5.46,1111122 
DISL,ioos:station:DISL:CATA:1,2009-08-04T13:00:00Z,30.3085,-88.1395,2.771,5.44,1111122 
DISL,ioos:station:DISL:CATA:1,2009-08-04T13:30:00Z,30.3085,-88.1395,2.786,5.43,1111122 
DISL,ioos:station:DISL:CATA:1,2009-08-04T14:00:00Z,30.3085,-88.1395,2.783,5.34,1111122 
DISL,ioos:station:DISL:CATA:1,2009-08-04T14:30:00Z,30.3085,-88.1395,2.795,5.48,1111122 
DISL,ioos:station:DISL:CATA:1,2009-08-04T15:00:00Z,30.3085,-88.1395,2.787,5.57,1111122 
DISL,ioos:station:DISL:CATA:1,2009-08-04T15:30:00Z,30.3085,-88.1395,2.79,5.49,1111122 
DISL,ioos:station:DISL:CATA:1,2009-08-04T16:00:00Z,30.3085,-88.1395,2.785,5.16,1111122 
DISL,ioos:station:DISL:CATA:1,2009-08-04T16:30:00Z,30.3085,-88.1395,2.766,4.09,1111122 
DISL,ioos:station:DISL:CATA:1,2009-08-04T17:00:00Z,30.3085,-88.1395,2.74,3.88,1111122 
DISL,ioos:station:DISL:CATA:1,2009-08-04T17:30:00Z,30.3085,-88.1395,2.723,3.74,1111122 
DISL,ioos:station:DISL:CATA:1,2009-08-04T18:00:00Z,30.3085,-88.1395,2.702,3.9,1111122 
DISL,ioos:station:DISL:CATA:1,2009-08-04T18:30:00Z,30.3085,-88.1395,2.675,4.29,1111122 
DISL,ioos:station:DISL:CATA:1,2009-08-04T19:00:00Z,30.3085,-88.1395,2.63,4.03,1111122 
DISL,ioos:station:DISL:CATA:1,2009-08-04T19:30:00Z,30.3085,-88.1395,2.595,3.34,1111122 
DISL,ioos:station:DISL:CATA:1,2009-08-04T20:00:00Z,30.3085,-88.1395,2.554,2.83,1111122 
DISL,ioos:station:DISL:CATA:1,2009-08-04T20:30:00Z,30.3085,-88.1395,2.515,3.49,1111122 
DISL,ioos:station:DISL:CATA:1,2009-08-04T21:00:00Z,30.3085,-88.1395,2.478,3.57,1111122 
DISL,ioos:station:DISL:CATA:1,2009-08-04T21:30:00Z,30.3085,-88.1395,2.449,3.89,1111122 
DISL,ioos:station:DISL:CATA:1,2009-08-04T22:00:00Z,30.3085,-88.1395,2.433,4.02,1111122 
DISL,ioos:station:DISL:CATA:1,2009-08-04T22:30:00Z,30.3085,-88.1395,2.409,3.77,1111122 
DISL,ioos:station:DISL:CATA:1,2009-08-04T23:00:00Z,30.3085,-88.1395,2.342,2.99,1111122 
DISL,ioos:station:DISL:CATA:1,2009-08-04T23:30:00Z,30.3085,-88.1395,2.324,3.18,1111122 
DISL,ioos:station:DISL:CATA:1,2009-08-05T00:00:00Z,30.3085,-88.1395,2.319,3.5,1111122 
DISL,ioos:station:DISL:CATA:1,2009-08-05T00:30:00Z,30.3085,-88.1395,2.321,2.83,1111122 
DISL,ioos:station:DISL:CATA:1,2009-08-05T01:00:00Z,30.3085,-88.1395,2.304,2.98,1111122 
DISL,ioos:station:DISL:CATA:1,2009-08-05T01:30:00Z,30.3085,-88.1395,2.296,1.72,1111122 
DISL,ioos:station:DISL:CATA:1,2009-08-05T02:00:00Z,30.3085,-88.1395,2.3,1.63,1111122 
DISL,ioos:station:DISL:CATA:1,2009-08-05T02:30:00Z,30.3085,-88.1395,2.322,1.36,1111122 
DISL,ioos:station:DISL:CATA:1,2009-08-05T03:00:00Z,30.3085,-88.1395,2.348,1.02,1111122 
DISL,ioos:station:DISL:CATA:1,2009-08-05T03:30:00Z,30.3085,-88.1395,2.354,0.57,1111122 
DISL,ioos:station:DISL:CATA:1,2009-08-05T04:00:00Z,30.3085,-88.1395,2.347,1.56,1111122 
DISL,ioos:station:DISL:CATA:1,2009-08-05T04:30:00Z,30.3085,-88.1395,2.356,5.06,1111122 
DISL,ioos:station:DISL:CATA:1,2009-08-05T05:00:00Z,30.3085,-88.1395,2.372,5.32,1111122 
DISL,ioos:station:DISL:CATA:1,2009-08-05T05:30:00Z,30.3085,-88.1395,2.378,4.87,1111122 
DISL,ioos:station:DISL:CATA:1,2009-08-05T06:00:00Z,30.3085,-88.1395,2.387,4.76,1111122 
DISL,ioos:station:DISL:CATA:1,2009-08-05T06:30:00Z,30.3085,-88.1395,2.421,4.27,1111122 
DISL,ioos:station:DISL:CATA:1,2009-08-05T07:00:00Z,30.3085,-88.1395,2.433,4.2,1111122 
DISL,ioos:station:DISL:CATA:1,2009-08-05T07:30:00Z,30.3085,-88.1395,2.448,4.0,1111122 
DISL,ioos:station:DISL:CATA:1,2009-08-05T08:00:00Z,30.3085,-88.1395,2.468,4.02,1111122 
DISL,ioos:station:DISL:CATA:1,2009-08-05T08:30:00Z,30.3085,-88.1395,2.493,4.59,1111122 
DISL,ioos:station:DISL:CATA:1,2009-08-05T09:00:00Z,30.3085,-88.1395,2.515,4.9,1111122 
DISL,ioos:station:DISL:CATA:1,2009-08-05T09:30:00Z,30.3085,-88.1395,2.537,4.86,1111122 
DISL,ioos:station:DISL:CATA:1,2009-08-05T10:00:00Z,30.3085,-88.1395,2.55,5.01,1111122 
DISL,ioos:station:DISL:CATA:1,2009-08-05T10:30:00Z,30.3085,-88.1395,2.589,5.01,1111122 
DISL,ioos:station:DISL:CATA:1,2009-08-05T11:00:00Z,30.3085,-88.1395,2.661,4.93,1111122 
DISL,ioos:station:DISL:CATA:1,2009-08-05T11:30:00Z,30.3085,-88.1395,2.654,4.97,1111122 
DISL,ioos:station:DISL:CATA:1,2009-08-05T12:00:00Z,30.3085,-88.1395,2.69,4.79,1111122 
DISL,ioos:station:DISL:CATA:1,2009-08-05T12:30:00Z,30.3085,-88.1395,2.698,4.65,1111122 
DISL,ioos:station:DISL:CATA:1,2009-08-05T13:00:00Z,30.3085,-88.1395,2.728,4.73,1111122 
DISL,ioos:station:DISL:CATA:1,2009-08-05T13:30:00Z,30.3085,-88.1395,2.734,4.81,1111122 
DISL,ioos:station:DISL:CATA:1,2009-08-05T14:00:00Z,30.3085,-88.1395,2.777,4.94,1111122 
DISL,ioos:station:DISL:CATA:1,2009-08-05T14:30:00Z,30.3085,-88.1395,2.795,5.04,1111122 
DISL,ioos:station:DISL:CATA:1,2009-08-05T15:00:00Z,30.3085,-88.1395,2.785,4.89,1111122 
DISL,ioos:station:DISL:CATA:1,2009-08-05T15:30:00Z,30.3085,-88.1395,2.759,5.01,1111122 
DISL,ioos:station:DISL:CATA:1,2009-08-05T16:00:00Z,30.3085,-88.1395,2.762,5.05,1111122 
DISL,ioos:station:DISL:CATA:1,2009-08-05T16:30:00Z,30.3085,-88.1395,2.768,4.83,1111122 
DISL,ioos:station:DISL:CATA:1,2009-08-05T17:00:00Z,30.3085,-88.1395,2.762,4.7,1111122 
DISL,ioos:station:DISL:CATA:1,2009-08-05T17:30:00Z,30.3085,-88.1395,2.759,4.19,1111122 
DISL,ioos:station:DISL:CATA:1,2009-08-05T18:00:00Z,30.3085,-88.1395,2.72,4.83,1111122 
DISL,ioos:station:DISL:CATA:1,2009-08-05T18:30:00Z,30.3085,-88.1395,2.698,4.39,1111122 
DISL,ioos:station:DISL:CATA:1,2009-08-05T19:00:00Z,30.3085,-88.1395,2.675,4.13,1111122 
DISL,ioos:station:DISL:CATA:1,2009-08-05T19:30:00Z,30.3085,-88.1395,2.669,4.49,1111122 
DISL,ioos:station:DISL:CATA:1,2009-08-05T20:00:00Z,30.3085,-88.1395,2.63,4.34,1111122 
DISL,ioos:station:DISL:CATA:1,2009-08-05T20:30:00Z,30.3085,-88.1395,2.556,4.02,1111122 
DISL,ioos:station:DISL:CATA:1,2009-08-05T21:00:00Z,30.3085,-88.1395,2.519,4.01,1111122 
DISL,ioos:station:DISL:CATA:1,2009-08-05T21:30:00Z,30.3085,-88.1395,2.499,3.84,1111122 
DISL,ioos:station:DISL:CATA:1,2009-08-05T22:00:00Z,30.3085,-88.1395,2.437,3.42,1111122 
DISL,ioos:station:DISL:CATA:1,2009-08-05T22:30:00Z,30.3085,-88.1395,2.423,2.89,1111122 
DISL,ioos:station:DISL:CATA:1,2009-08-05T23:00:00Z,30.3085,-88.1395,2.44,4.15,1111122 
DISL,ioos:station:DISL:CATA:1,2009-08-05T23:30:00Z,30.3085,-88.1395,2.408,3.64,1111122 
DISL,ioos:station:DISL:CATA:1,2009-08-06T00:00:00Z,30.3085,-88.1395,2.366,3.54,1111122 
DISL,ioos:station:DISL:CATA:1,2009-08-06T00:30:00Z,30.3085,-88.1395,2.387,2.79,1111122 
DISL,ioos:station:DISL:CATA:1,2009-08-06T01:00:00Z,30.3085,-88.1395,2.337,2.39,1111122 
DISL,ioos:station:DISL:CATA:1,2009-08-06T01:30:00Z,30.3085,-88.1395,2.31,2.07,1111122 
DISL,ioos:station:DISL:CATA:1,2009-08-06T02:00:00Z,30.3085,-88.1395,2.299,2.3,1111122 
DISL,ioos:station:DISL:CATA:1,2009-08-06T02:30:00Z,30.3085,-88.1395,2.355,2.3,1111122 
DISL,ioos:station:DISL:CATA:1,2009-08-06T03:00:00Z,30.3085,-88.1395,2.287,2.41,1111122 
DISL,ioos:station:DISL:CATA:1,2009-08-06T03:30:00Z,30.3085,-88.1395,2.312,2.31,1111122 
DISL,ioos:station:DISL:CATA:1,2009-08-06T04:00:00Z,30.3085,-88.1395,2.342,1.55,1111122 
DISL,ioos:station:DISL:CATA:1,2009-08-06T04:30:00Z,30.3085,-88.1395,2.371,1.12,1111122 
DISL,ioos:station:DISL:CATA:1,2009-08-06T05:00:00Z,30.3085,-88.1395,2.335,2.2,1111122 
DISL,ioos:station:DISL:CATA:1,2009-08-06T05:30:00Z,30.3085,-88.1395,2.375,2.48,1111122 
DISL,ioos:station:DISL:CATA:1,2009-08-06T06:00:00Z,30.3085,-88.1395,2.395,2.64,1111122 
DISL,ioos:station:DISL:CATA:1,2009-08-06T06:30:00Z,30.3085,-88.1395,2.425,2.84,1111122 
DISL,ioos:station:DISL:CATA:1,2009-08-06T07:00:00Z,30.3085,-88.1395,2.454,2.84,1111122 
DISL,ioos:station:DISL:CATA:1,2009-08-06T07:30:00Z,30.3085,-88.1395,2.462,2.44,1111122 
DISL,ioos:station:DISL:CATA:1,2009-08-06T08:00:00Z,30.3085,-88.1395,2.469,2.7,1111122 
DISL,ioos:station:DISL:CATA:1,2009-08-06T08:30:00Z,30.3085,-88.1395,2.461,2.95,1111122 
DISL,ioos:station:DISL:CATA:1,2009-08-06T09:00:00Z,30.3085,-88.1395,2.516,3.23,1111122 
DISL,ioos:station:DISL:CATA:1,2009-08-06T09:30:00Z,30.3085,-88.1395,2.526,3.54,1111122 
DISL,ioos:station:DISL:CATA:1,2009-08-06T10:00:00Z,30.3085,-88.1395,2.509,3.4,1111122 
DISL,ioos:station:DISL:CATA:1,2009-08-06T10:30:00Z,30.3085,-88.1395,2.559,3.18,1111122 
DISL,ioos:station:DISL:CATA:1,2009-08-06T11:00:00Z,30.3085,-88.1395,2.598,2.77,1111122 
DISL,ioos:station:DISL:CATA:1,2009-08-06T11:30:00Z,30.3085,-88.1395,2.62,3.39,1111122 
DISL,ioos:station:DISL:CATA:1,2009-08-06T12:00:00Z,30.3085,-88.1395,2.65,3.64,1111122 
DISL,ioos:station:DISL:CATA:1,2009-08-06T12:30:00Z,30.3085,-88.1395,2.686,3.84,1111122 
DISL,ioos:station:DISL:CATA:1,2009-08-06T13:00:00Z,30.3085,-88.1395,2.714,4.02,1111122 
DISL,ioos:station:DISL:CATA:1,2009-08-06T13:30:00Z,30.3085,-88.1395,2.719,4.46,1111122 
DISL,ioos:station:DISL:CATA:1,2009-08-06T14:00:00Z,30.3085,-88.1395,2.71,4.45,1111122 
DISL,ioos:station:DISL:CATA:1,2009-08-06T14:30:00Z,30.3085,-88.1395,2.74,4.65,1111122 
DISL,ioos:station:DISL:CATA:1,2009-08-06T15:00:00Z,30.3085,-88.1395,2.746,4.75,1111122 
DISL,ioos:station:DISL:CATA:1,2009-08-06T15:30:00Z,30.3085,-88.1395,2.743,4.78,1111122 